Regional Weather Roundup
Issued by NWS

Home | Current Version | Previous Version | Text Only | Print | Product List | Glossary Off
Versions: 1 2 3 4 5 6 7 8 9 10 11 12 13 14 15 16 17 18 19 20 21 22 23 24 25 26 27 28 29 30 31 32 33 34 35 36 37 38 39 40 41 42 43 44 45 46 47 48 49 50

000
ASUS45 KBOU 200907
RWRCO

WEATHER ROUNDUP FOR COLORADO
NATIONAL WEATHER SERVICE DENVER/BOULDER CO
300 AM MDT WED AUG 20 2014

NOTE: "FAIR" INDICATES FEW OR NO CLOUDS BELOW 12000 FEET WITH NO
SIGNIFICANT WEATHER AND/OR OBSTRUCTIONS TO VISIBILITY.

COZ001>005-013-030-031-201000-
...NORTHWEST COLORADO...

CITY           SKY/WX    TMP DP  RH WIND       PRES   REMARKS
CRAIG          LGT RAIN  57  54  89 NE3       30.04S
HAYDEN         CLOUDY    55  50  82 E7        30.05F
MEEKER         CLOUDY    57  55  93 CALM      30.04F
MOUNT WERNER   NOT AVBL
STEAMBOAT SPGS CLOUDY    54  52  94 CALM      30.07F
WALDEN         CLOUDY    50  46  87 E3        30.13S
$$

COZ006>008-011-201000-
...WEST CENTRAL VALLEYS...

CITY           SKY/WX    TMP DP  RH WIND       PRES   REMARKS
GRAND JUNCTION LGT RAIN  61  61 100 CALM      29.98S
MONTROSE       LGT RAIN  62  58  86 S6        30.06R
EAGLE          CLOUDY    57  57 100 CALM      30.09F
RIFLE          CLOUDY    61  57  87 CALM      30.02S
DELTA          HVY RAIN  65  61  88 CALM      30.02R
NUCLA          CLOUDY    63  54  72 N3        30.09S
$$

COZ017>023-064>068-201000-
...SOUTHWEST COLORADO...

CITY           SKY/WX    TMP DP  RH WIND       PRES   REMARKS
DURANGO        CLOUDY    60  51  72 E3        30.11S
CORTEZ         CLOUDY    60  58  92 CALM      30.08S
PAGOSA SPRINGS MOCLDY    56  54  92 CALM      30.17S
TELLURIDE      NOT AVBL
WOLF CREEK PAS NOT AVBL
$$

COZ009-010-012-014-032>034-037-058>063-201000-
...CENTRAL COLORADO...

CITY           SKY/WX    TMP DP  RH WIND       PRES   REMARKS
ASPEN          LGT RAIN  54  52  93 NW5       30.13R
BUENA VISTA    CLOUDY    55  49  80 CALM      30.12S
COPPER MTN     MOCLDY    46  37  71 S23       30.37S
BERTHOUD PASS  CLOUDY    41  39  93 MISG      30.42S
COTTONWOOD PAS CLOUDY    54  43  66 S7        30.25R
GUNNISON       CLOUDY    55  46  71 N3        30.15S
KREMMLING      CLOUDY    54  50  87 CALM      30.12S
LEADVILLE      CLOUDY    47  45  93 E5        30.23F
MONARCH PASS   DRIZZLE   43  39  87 SW20      30.48F
SALIDA         CLOUDY    60  51  74 CALM      30.17S
SUNLIGHT       FOG       50  48  93 CALM      30.31F VSB 1/2
WILKERSON PASS CLOUDY    46  37  71 SW9       30.35F
$$

COZ069>075-201000-
...SAN LUIS VALLEY/SANGRE DE CRISTO MOUNTAINS...

CITY           SKY/WX    TMP DP  RH WIND       PRES   REMARKS
ALAMOSA        CLOUDY    62  44  51 S9        30.12S
LA VETA PASS   MOCLDY    52  39  62 S12G21    30.27F
SAGUACHE       CLOUDY    59  45  58 N5        30.14S
$$

COZ035-036-038>040-201000-
...NORTHERN COLORADO FRONT RANGE...

CITY           SKY/WX    TMP DP  RH WIND       PRES   REMARKS
DENVER INTL AP CLOUDY    65  55  70 SW9       29.92S
DMNS CITY PARK   N/A     65  53  65 S3        29.91S
AURORA         MOCLDY    63  54  73 SW5       29.94S
FRONT RANGE AP CLOUDY    64  59  82 SW6       29.93S
ERIE MUNI ARPT CLOUDY    64  54  70 CALM      29.90S
BOULDER MUN AP CLOUDY    66  52  59 W3        29.91S
CENTENNIAL     CLOUDY    63  53  70 CALM      29.95S
BROOMFIELD     CLOUDY    64  50  59 W3        29.93F
FORT COLLINS   MOCLDY    66  54  63 N5        29.92R
LONGMONT       MOCLDY    67  55  65 CALM      29.91S
$$

COZ041-046-047-076>085-087-088-201000-
...PIKES PEAK/PALMER DIVIDE AND SOUTHERN FOOTHILLS...

CITY           SKY/WX    TMP DP  RH WIND       PRES   REMARKS
COLO. SPRINGS  MOCLDY    63  51  65 N5        29.98F
A. F. ACADEMY  CLOUDY    59  51  75 N7        30.00F
ELLICOTT       MOCLDY    59  48  67 N7        29.95F
FALCON         MOCLDY    57  48  72 W3        30.03F
FORT CARSON    MOCLDY    60  50  69 N8        29.94F
LIMON          MOCLDY    62  49  62 CALM      29.91F
MONUMENT HILL  MOCLDY    57  46  67 S5        30.03S
TRINIDAD       MOCLDY    67  47  48 SW12      29.96F
$$

COZ042>045-048>051-090-091-201000-
...NORTHEAST COLORADO...

CITY           SKY/WX    TMP DP  RH WIND       PRES   REMARKS
GREELEY ARPT   CLOUDY    63  52  67 N6        29.89S
AKRON          CLOUDY    65  59  81 MISG      29.86F
BURLINGTON     MOCLDY    73  57  57 S12       29.85S
WRAY             N/A     67  61  79 E5        29.82S
STERLING       CLOUDY    64  63  94 NW5       29.83F
HOLYOKE        NOT AVBL
FORT MORGAN    CLOUDY    61  57  88 NE6       29.88S
$$

COZ086-089-092>099-201000-
...SOUTHEAST COLORADO...

CITY           SKY/WX    TMP DP  RH WIND       PRES   REMARKS
PUEBLO         MOCLDY    67  52  58 W6        29.87R
LA JUNTA       MOCLDY    75  54  47 SW10      29.83F
LAMAR          PTCLDY    76  57  51 S18       29.79F
SPRINGFIELD      N/A     69  59  70 S13       29.90F
$$


USA.gov is the U.S. government's official web portal to all federal, state and local government web resources and services.